This is the latest recevied weather packets stored in our database for station/object SQ9IDT-13. If no packets are shown the sender has not sent any weather packets the latest 10 day(s).
| Time | Temp. | Humidity | Pressure | Rain* | Wind** | Luminosity | Snow |
|---|---|---|---|---|---|---|---|
| 1777507616 | -1.67° C | 41% | 997.1 hPa | - | - | - | - |
| 1777504010 | -1.11° C | 41% | 997 hPa | - | - | - | - |
| 1777500409 | -0.56° C | 40% | 996.9 hPa | - | - | - | - |
| 1777496817 | 0° C | 39% | 996.6 hPa | - | - | - | - |
| 1777493215 | 1.11° C | 38% | 996.2 hPa | - | - | - | - |
| 1777489614 | 2.22° C | 36% | 995.9 hPa | - | - | - | - |
| 1777486012 | 5° C | 35% | 995.3 hPa | - | - | - | - |
| 1777482409 | 7.78° C | 34% | 994.8 hPa | - | - | - | - |
| 1777478808 | 10° C | 32% | 994.4 hPa | - | - | - | - |
| 1777475216 | 9.44° C | 32% | 994.1 hPa | - | - | - | - |
| 1777471692 | 12.22° C | 31% | 993.7 hPa | - | - | - | - |
| 1777471613 | 12.22° C | 31% | 993.7 hPa | - | - | - | - |
| 1777468011 | 12.78° C | 30% | 993.3 hPa | - | - | - | - |
| 1777460808 | 15° C | 30% | 993.1 hPa | - | - | - | - |
| 1777457207 | 13.33° C | 34% | 993.2 hPa | - | - | - | - |
| 1777453613 | 12.22° C | 37% | 993.2 hPa | - | - | - | - |
| 1777450013 | 11.67° C | 38% | 993.2 hPa | - | - | - | - |
| 1777446410 | 12.22° C | 43% | 992.6 hPa | - | - | - | - |
| 1777442809 | 10.56° C | 45% | 992 hPa | - | - | - | - |
| 1777439207 | 3.89° C | 43% | 991.8 hPa | - | - | - | - |
| 1777435606 | 0° C | 42% | 991.3 hPa | - | - | - | - |
| 1777432014 | -1.67° C | 42% | 991.4 hPa | - | - | - | - |
| 1777428412 | -0.56° C | 41% | 991.5 hPa | - | - | - | - |
| 1777424810 | -0.56° C | 40% | 991 hPa | - | - | - | - |
| 1777421208 | 0° C | 39% | 991.1 hPa | - | - | - | - |
* Rain since midnight (hover to see other rain measurements)
** Current wind speed in m/s (hover to see current wind gust speed)